Change the Weather History Date:

Monday, January 27, 2014

  Actual Average Record
Temperature  
Mean Temperature 34 °F -  
Max Temperature 46 °F 43 °F 74 °F (1950)
Min Temperature 22 °F 25 °F 6 °F (1987)
Degree Days  
Heating Degree Days 30    
Moisture  
Dew Point 22 °F    
Average Humidity 58    
Maximum Humidity 73    
Minimum Humidity 38    
Precipitation  
Precipitation 0.00 in - - ()
Sea Level Pressure  
Sea Level Pressure 29.83 in    
Wind  
Wind Speed 15 mph (WSW)    
Max Wind Speed 21 mph    
Max Gust Speed 30 mph    
Visibility 10 miles    
Events      
Averages and records for this station are not official NWS values.
T = Trace of Precipitation, MM = Missing Value Source: NWS Daily Summary

Daily Weather History Graph

Daily Weather History Graph

Search for Another Location

Airport or City:

Trip Planner

Search our weather history database for the weather conditions in past years. The results will help you decide how hot, cold, wet, or windy it might be!

Date:

Astronomy

Jan. 27, 2014 Rise Set
Actual Time 7:12 AM EST 5:16 PM EST
Civil Twilight 6:44 AM EST 5:45 PM EST
Nautical Twilight 6:11 AM EST 6:17 PM EST
Astronomical Twilight 5:40 AM EST 6:49 PM EST
Moon 3:51 AM EST 2:01 PM EST
Length of Visible Light 11h 01m
Length of Day
10h 04m
Waning Crescent, 15% of the Moon is Illuminated
Jan 27
Waning Crescent
Jan 30
New
Feb 6
First Quarter
Feb 14
Full
Feb 22
Last Quarter

Hourly Weather History & Observations

Time (EST) Temp. Windchill Dew Point Humidity Pressure Visibility Wind Dir Wind Speed Gust Speed Precip Events Conditions
12:58 AM 36.1 °F 26.5 °F 26.4 °F 68% 29.74 in 10.0 mi South 16.1 mph - N/A   Scattered Clouds
1:58 AM 38.3 °F 29.3 °F 26.8 °F 63% 29.73 in 10.0 mi South 16.1 mph - N/A   Overcast
2:58 AM 38.5 °F 30.7 °F 27.5 °F 65% 29.71 in 10.0 mi South 12.7 mph - N/A   Overcast
3:58 AM 40.5 °F 32.5 °F 28.8 °F 63% 29.70 in 10.0 mi South 15.0 mph - N/A   Clear
4:58 AM 40.6 °F 33.4 °F 29.3 °F 64% 29.69 in 10.0 mi South 12.7 mph - N/A   Partly Cloudy
5:58 AM 40.3 °F 32.6 °F 30.2 °F 67% 29.67 in 10.0 mi South 13.8 mph - N/A   Overcast
6:58 AM 39.4 °F 32.3 °F 31.1 °F 72% 29.68 in 10.0 mi South 11.5 mph - N/A   Partly Cloudy
7:58 AM 39.7 °F 30.6 °F 31.5 °F 72% 29.66 in 10.0 mi South 18.4 mph - N/A   Mostly Cloudy
8:58 AM 40.1 °F 32.0 °F 32.2 °F 73% 29.67 in 10.0 mi SSW 15.0 mph - N/A   Scattered Clouds
9:58 AM 41.5 °F 34.6 °F 32.9 °F 71% 29.69 in 10.0 mi SSW 12.7 mph - N/A   Mostly Cloudy
10:58 AM 43.2 °F 37.9 °F 32.9 °F 67% 29.70 in 10.0 mi SSW 9.2 mph - N/A   Overcast
11:58 AM 45.9 °F 41.2 °F 33.1 °F 61% 29.70 in 10.0 mi SW 9.2 mph 18.4 mph N/A   Overcast
12:58 PM 46.4 °F 41.1 °F 33.1 °F 60% 29.72 in 10.0 mi West 11.5 mph - N/A   Overcast
1:58 PM 42.4 °F 34.1 °F 30.0 °F 61% 29.76 in 10.0 mi NW 18.4 mph - N/A   Overcast
2:58 PM 40.1 °F 30.5 °F 22.1 °F 49% 29.81 in 10.0 mi WNW 20.7 mph - N/A   Clear
3:58 PM 37.6 °F 27.1 °F 20.7 °F 51% 29.85 in 10.0 mi NW 20.7 mph 29.9 mph N/A   Clear
4:58 PM 30.4 °F 18.0 °F 14.2 °F 51% 29.93 in 10.0 mi NW 19.6 mph 28.8 mph N/A   Partly Cloudy
5:58 PM 28.4 °F 17.0 °F 11.7 °F 50% 29.98 in 10.0 mi NW 15.0 mph 23.0 mph N/A   Overcast
6:58 PM 27.5 °F 16.8 °F 10.2 °F 48% 30.01 in 10.0 mi NW 12.7 mph - N/A   Overcast
7:58 PM 27.3 °F 16.6 °F 10.0 °F 48% 30.05 in 10.0 mi NW 12.7 mph - N/A   Overcast
8:58 PM 26.6 °F 15.7 °F 7.2 °F 44% 30.07 in 10.0 mi NW 12.7 mph - N/A   Overcast
9:58 PM 25.3 °F 11.8 °F 2.8 °F 38% 30.10 in 10.0 mi NW 18.4 mph 24.2 mph N/A   Overcast
10:58 PM 23.9 °F 10.3 °F 3.0 °F 41% 30.12 in 10.0 mi NW 17.3 mph - N/A   Overcast
11:58 PM 22.1 °F 10.0 °F 3.0 °F 44% 30.15 in 10.0 mi NW 12.7 mph - N/A   Mostly Cloudy